SCP
3 2 2 1 0 0 0 0 0 0 0 0 0 0 0 0 0 0 0 0 0 0 0 0 0 0 0 0 0 0 0 0 0 0 0 0 0 0 0 0 0 0 0
2 1 1 0 0 0 0 0 0 0 0 0 0 0 0 0 0 0 0 0 0 0 0 0 0 0 0 0 0 0 0 0 0 0 0 0 0 0 0 0 0 0 0
2 0 0 0 0 0 0 0 0 0 0 0 0 0 0 0 0 0 0 0 0 0 0 0 0 0 0 0 0 0 0 0 0 0 0 0 0 0 0 0 0 0 0
0 0 0 0 0 0 0 0 0 0 0 -0 0 0 0 0 0 0 0 0 0 0 0 0 0 0 0 0 0 0 0 0 0 0 0 0 0 0 0 0 0 0 0
0 0 0 0 0 0 0 0 0 -0 -0 0 0 0 0 0 0 0 0 0 0 0 0 0 0 0 0 0 0 0 0 0 0 0 0 0 0 0 0 0 0 0 0
0 0 0 0 0 0 0 0 -0 -0 0 0 0 0 0 0 0 0 0 0 0 0 0 0 0 0 0 0 0 0 0 0 0 0 0 0 0 0 0 0 0 0 -0
0 0 0 0 0 0 0 0 -0 -0 0 0 0 0 0 0 0 0 0 0 0 0 0 0 0 0 0 0 0 0 0 0 0 0 0 0 0 0 0 0 0 0 0
0 0 0 0 0 0 0 -0 -0 -0 0 0 0 0 0 0 0 0 0 0 0 0 0 0 0 0 0 0 0 0 0 0 0 0 0 0 0 0 0 0 0 0 0
0 0 0 0 0 0 0 -0 -0 0 0 0 0 0 0 0 0 0 0 0 0 0 0 0 0 0 0 0 0 0 0 0 0 0 0 0 0 -0 -0 0 0 0 0
0 0 0 0 0 0 -0 -0 0 0 0 0 0 0 0 0 0 0 0 0 0 0 0 0 0 0 0 0 0 0 0 0 0 0 0 0 0 0 -0 0 0 0 0
0 0 0 0 0 0 0 0 0 0 0 0 0 0 0 0 0 0 0 0 0 0 0 0 0 0 0 0 0 0 0 0 0 0 0 0 0 -0 -0 0 0 0 0
0 0 0 0 0 0 0 0 0 0 -0 0 0 0 0 0 0 0 0 0 0 0 0 0 0 0 0 0 0 0 0 0 0 0 0 0 0 0 -0 0 0 0 0
0 0 0 0 0 0 0 0 0 -0 -0 0 0 0 0 0 0 0 0 0 0 0 0 0 0 0 0 0 0 0 0 0 0 0 0 0 0 0 0 0 0 0 0
0 0 0 0 0 0 0 -0 -0 -0 -0 -0 -0 0 0 0 0 0 0 0 0 0 0 0 0 0 0 0 0 0 0 0 -0 0 0 0 0 0 0 0 0 0 0
0 0 0 0 0 -0 -0 -0 -0 -0 -0 -0 0 0 0 0 0 0 0 0 0 0 0 0 0 0 0 0 0 0 0 0 0 0 0 0 0 0 0 0 0 0 0
0 0 0 0 -0 -0 -0 -0 -0 -0 -0 -0 0 0 0 0 0 0 0 0 0 0 0 0 0 0 0 0 0 0 0 0 -0 0 -0 0 -0 0 0 0 0 0 0
0 0 0 -0 -0 -0 -0 -0 -0 -0 -0 -0 -0 0 0 0 0 0 0 0 0 0 0 0 0 0 0 0 0 0 0 0 0 0 -0 -0 -0 -0 0 0 -0 0 0
-0 -0 -0 -0 -0 -0 -0 -0 -0 -0 -0 0 0 0 0 0 0 0 0 0 0 0 0 0 0 0 0 0 0 0 0 0 -0 -0 -0 -0 -0 -0 0 0 0 0 0
-0 0 -0 -0 -0 -0 -0 -0 -0 -0 0 0 0 0 0 0 0 0 0 0 0 0 0 0 0 0 0 0 0 0 0 0 -0 -0 -0 -0 -0 -0 -0 -0 0 0 0
-0 -0 -0 -0 -0 -0 -0 -0 0 0 0 0 -0 -0 -0 0 0 0 0 0 0 0 0 0 0 0 0 0 0 0 0 0 -0 -0 -0 -0 -0 -0 -0 -0 -0 0 0
-0 -0 -0 -0 -0 -0 -0 -0 0 0 0 -0 -0 -0 -0 -0 -0 -0 0 0 -0 -0 -0 -0 0 0 0 0 0 0 0 0 0 0 -0 -0 -0 -0 -0 -0 -0 -0 0
-0 -0 -0 -0 -0 -0 -0 -0 0 0 -0 -0 -0 -0 -0 -0 -0 -0 -0 -0 -0 -0 -0 -0 -0 -0 0 0 0 0 0 0 -0 -0 -0 -0 -0 -0 -0 -0 -0 -0 -0
-0 -0 -0 -0 -0 -0 -0 0 -0 -0 -0 0 -0 -0 -0 -0 -0 -0 -0 -0 -0 -0 -0 -0 -0 -0 0 0 0 0 0 0 0 0 0 -0 -0 -0 -0 -0 -0 -0 -0
-0 -0 0 0 0 0 0 -0 -0 -0 0 0 0 0 0 -0 -0 -0 -0 -0 -0 -0 -0 -0 -0 -0 -0 -0 -0 -0 -0 0 0 -0 -0 0 -0 -0 -0 -0 -0 -0 -0
0 -0 -0 -0 -0 -0 0 -0 -0 -0 -0 -0 0 0 0 0 0 -0 -0 -0 -0 -0 -0 -0 -0 -0 -0 -0 0 0 0 -0 -0 -0 0 -0 -0 -0 -0 -0 -0 -0 -0
0 0 0 -0 -0 0 -0 -0 0 -0 -0 0 0 0 0 0 0 0 0 -0 -0 -0 -0 -0 -0 -0 -0 0 0 -0 -0 -0 -0 -0 -0 0 -0 -0 -0 -0 -0 -0 -0
Wind_Speed_500mb
86 103 90 93 102 90 82 71 73 58 51 47 38 32 26 21 16 13 19 22 19 21 20 23 27 30 32 34 36 39 40 42 43 56 55 71 77 84 85 76 72 69 64
89 95 94 102 97 90 87 84 65 62 51 45 38 34 29 24 21 21 21 22 19 22 24 24 29 32 35 37 38 39 40 38 43 52 61 78 80 87 88 83 77 72 71
86 100 114 110 98 88 88 73 72 61 54 44 38 36 31 27 23 22 19 22 23 22 22 26 31 33 36 37 37 38 39 41 42 50 67 75 83 92 93 85 81 84 72
92 102 109 105 91 87 82 79 68 62 53 44 41 36 33 31 30 27 22 25 22 18 23 31 36 37 38 38 39 38 39 41 45 52 64 77 88 92 91 91 93 87 81
101 103 100 91 96 89 83 76 73 59 46 44 41 38 36 31 29 23 20 20 18 19 25 32 35 38 39 39 39 37 36 38 44 52 62 72 84 92 91 89 86 90 84
108 106 101 104 93 77 77 74 62 53 50 43 41 40 37 33 26 18 18 18 17 22 27 29 30 34 34 35 33 32 33 35 41 50 55 65 73 77 78 81 82 87 74
112 111 111 100 91 84 77 67 62 59 54 52 48 40 36 34 23 17 12 12 17 24 29 31 32 34 35 37 33 29 27 28 34 42 49 57 67 70 73 74 75 76 71
120 114 111 89 89 82 73 67 69 65 58 51 46 39 36 33 19 12 7 12 20 28 31 35 36 37 41 44 41 31 28 30 34 38 40 48 60 62 63 62 67 69 72
113 93 84 100 93 81 77 77 71 66 60 51 45 39 34 31 19 15 10 16 23 29 31 36 38 40 43 44 40 38 36 33 30 33 37 42 57 61 62 62 65 71 73
83 92 95 95 84 80 82 77 72 64 59 54 49 41 36 35 26 19 17 17 26 27 32 34 35 37 39 41 39 42 44 42 40 39 46 50 62 66 65 58 62 70 67
99 93 84 80 83 84 77 71 67 62 58 52 47 43 38 34 31 27 22 24 27 29 30 31 32 34 38 37 36 40 40 32 37 47 57 64 67 73 69 62 58 66 66
95 91 86 83 79 77 79 73 63 57 54 53 50 48 43 37 35 32 25 26 27 27 29 30 31 32 34 35 36 36 34 34 41 49 58 69 76 77 70 66 59 68 65
100 98 94 90 85 79 75 68 61 57 57 56 51 52 48 41 38 31 24 24 24 28 32 33 33 34 36 37 37 40 42 44 48 54 62 64 71 70 65 65 68 70 72
104 99 95 94 88 79 70 60 55 54 56 55 53 52 47 42 35 25 22 21 24 31 30 32 40 45 46 42 40 46 49 50 53 54 58 57 64 74 72 64 74 78 79
99 99 95 88 77 73 66 56 54 53 46 53 51 45 41 41 32 24 22 25 31 32 32 40 48 54 54 52 51 51 52 50 52 53 55 60 66 74 73 61 65 78 81
109 101 93 89 86 77 72 75 63 59 52 47 45 40 44 36 25 26 28 32 31 33 44 53 59 62 61 58 57 54 55 54 54 52 53 60 68 75 71 60 61 65 77
103 98 93 86 80 79 75 76 80 64 54 50 43 37 33 32 27 29 34 36 41 43 56 60 61 62 59 55 56 55 55 53 49 50 53 59 67 70 69 61 57 58 65
96 90 84 80 78 76 74 74 72 70 66 57 43 36 37 37 35 32 33 39 51 57 61 61 60 58 57 55 53 54 51 51 50 52 52 61 66 69 67 60 54 53 52
85 84 84 85 82 79 75 71 67 63 59 54 50 45 42 43 40 41 43 51 58 61 59 59 57 55 54 52 52 51 49 52 52 53 53 62 65 67 62 56 49 45 45
89 87 85 84 79 75 73 71 66 59 54 51 47 42 38 38 45 50 53 56 57 58 55 55 55 54 52 52 53 54 50 52 52 56 58 65 64 64 57 53 49 44 43
87 81 76 76 73 70 65 67 62 55 53 51 48 43 40 45 52 52 54 54 54 54 52 52 53 52 53 53 52 55 52 52 51 57 62 66 64 63 54 49 47 44 42
78 73 69 68 67 68 66 59 54 52 52 52 50 44 43 48 50 55 52 51 50 50 50 50 51 53 55 54 53 54 53 53 53 55 62 65 64 59 54 52 49 48 45
75 77 80 79 76 71 65 58 54 51 49 44 43 45 44 47 49 50 49 47 45 45 46 46 48 49 50 52 52 53 53 52 53 53 59 64 63 60 56 55 52 51 52
78 78 78 76 71 64 57 52 48 50 47 46 43 41 40 41 41 42 42 42 43 43 44 46 48 48 48 49 50 49 49 43 42 47 53 62 59 61 56 54 55 57 59
72 70 68 64 59 55 51 49 48 45 46 45 45 40 34 32 32 31 35 37 39 40 43 44 46 46 46 47 48 45 42 43 41 40 46 56 59 60 58 53 54 54 57
63 62 61 57 55 52 50 47 44 43 43 41 39 36 31 28 25 24 28 34 37 39 41 42 43 43 43 45 46 46 42 41 44 40 43 48 58 59 52 50 53 56 50
Wind_Direction_500mb
193 179 182 189 185 181 185 190 178 177 164 159 155 150 148 141 128 119 94 87 85 87 74 50 42 31 17 10 5 356 352 351 348 342 344 354 355 356 353 1 358 354 357
189 180 177 186 190 188 190 175 170 158 157 154 149 146 144 139 120 102 99 104 96 77 61 47 35 20 11 8 2 354 350 356 352 350 346 357 356 359 356 360 358 356 357
188 183 179 186 187 184 168 162 158 156 158 149 149 146 138 124 110 99 112 101 84 69 51 34 24 14 10 9 3 355 351 355 3 357 354 358 357 360 357 357 358 1 3
188 183 180 185 182 166 159 157 155 157 149 148 145 134 124 115 107 110 99 86 79 73 46 26 18 12 13 11 7 1 358 2 4 2 0 359 0 359 357 355 355 360 2
177 174 172 166 156 154 154 152 151 148 147 148 140 131 125 116 108 106 93 87 78 53 35 22 16 17 16 14 12 10 5 3 8 6 5 1 3 359 356 354 354 357 2
177 168 162 152 151 154 155 154 143 146 149 145 139 136 129 119 114 104 88 80 59 35 26 24 15 13 10 15 13 12 10 8 13 10 9 5 5 2 355 356 356 358 352
152 153 151 148 149 154 154 144 145 146 144 140 136 133 126 120 117 105 83 65 40 29 24 25 21 18 10 16 14 8 10 16 16 14 14 13 7 5 358 356 359 359 354
134 135 140 137 151 152 148 145 143 139 139 135 131 129 126 119 119 109 90 57 39 35 30 30 22 13 9 10 12 14 15 14 17 20 23 20 17 10 5 1 1 358 0
131 131 142 154 152 147 147 143 140 137 134 133 129 131 126 121 116 106 80 48 47 46 39 32 24 14 15 16 13 20 21 26 28 30 28 25 25 19 10 7 11 7 357
132 145 153 153 147 148 145 140 136 133 131 129 128 123 120 114 115 102 78 71 58 48 39 30 23 20 22 20 19 21 25 27 27 29 29 29 31 25 16 21 22 15 6
149 151 154 148 147 147 139 135 135 132 129 126 123 117 110 105 100 91 87 64 54 45 36 28 23 21 24 27 31 31 28 24 33 36 36 35 32 29 21 21 32 29 15
149 148 144 143 141 139 136 133 128 125 124 123 118 110 103 98 96 90 70 55 44 39 38 34 30 28 31 34 37 41 35 34 33 36 35 34 32 27 22 23 34 40 30
145 144 144 140 137 136 132 127 123 124 121 116 113 107 104 104 92 82 64 53 48 47 48 47 44 41 41 43 44 41 38 38 35 36 35 35 33 31 22 25 35 41 38
143 140 138 138 138 135 126 120 120 121 116 113 112 111 110 95 84 76 66 56 59 55 54 55 52 49 46 49 46 42 42 39 37 36 36 34 37 34 27 26 33 38 36
139 137 139 136 135 131 126 119 115 110 112 114 112 102 98 90 82 80 74 62 52 53 56 54 49 46 46 48 46 41 41 41 39 37 34 33 34 35 31 30 34 38 41
140 142 142 143 142 139 130 121 114 114 114 105 104 97 94 91 96 85 76 71 64 59 56 52 49 46 46 45 43 39 37 39 38 36 34 35 32 35 30 34 38 40 45
142 142 140 142 142 136 131 125 119 110 104 100 97 96 95 99 89 73 68 73 68 60 57 54 51 48 45 43 40 37 37 38 38 36 35 33 30 35 32 33 40 40 44
142 143 142 139 135 132 127 123 120 116 112 105 102 105 99 96 89 82 73 70 64 59 56 53 50 48 45 42 40 38 39 38 39 35 35 33 31 33 32 32 39 42 46
141 138 134 131 128 125 123 120 117 117 114 107 102 93 89 89 87 78 71 65 63 59 55 53 51 48 45 43 42 40 41 40 37 34 35 30 31 34 35 34 38 48 47
137 135 133 131 129 127 126 126 125 121 112 101 92 91 97 93 81 75 70 65 62 59 54 52 50 47 45 42 40 41 44 42 39 34 35 31 36 38 36 36 38 47 52
137 137 134 133 132 129 128 129 128 116 107 102 100 93 86 83 79 74 69 64 59 57 53 49 48 46 43 41 41 42 43 42 39 36 36 35 38 38 39 40 43 50 56
134 135 135 134 133 132 129 124 120 114 112 105 98 94 87 80 74 71 67 63 59 55 52 47 45 42 39 38 39 41 41 39 37 39 38 38 41 41 43 44 49 53 58
138 135 132 128 126 125 125 121 114 110 109 107 104 95 83 75 69 67 64 60 57 54 52 51 48 45 41 38 38 41 40 39 35 37 40 41 42 42 45 46 51 58 69
136 134 132 131 129 125 119 113 112 112 109 107 101 91 82 75 69 64 61 55 53 51 49 49 48 45 43 42 42 45 43 38 35 38 43 44 46 45 48 53 66 78 81
137 134 132 129 128 126 126 122 116 110 105 100 96 92 88 79 72 63 59 54 53 49 49 48 48 45 44 44 44 45 44 36 34 36 44 48 50 53 53 68 79 78 68
138 136 132 132 131 129 124 120 114 111 104 97 93 92 91 89 80 66 58 56 53 49 47 47 47 45 45 45 44 42 42 41 37 37 40 48 53 58 64 74 73 61 58
Wind_Speed_850mb
86 103 90 93 102 90 82 71 73 58 51 47 38 32 26 21 16 13 19 22 19 21 20 23 27 30 32 34 36 39 40 42 43 56 55 71 77 84 85 76 72 69 64
89 95 94 102 97 90 87 84 65 62 51 45 38 34 29 24 21 21 21 22 19 22 24 24 29 32 35 37 38 39 40 38 43 52 61 78 80 87 88 83 77 72 71
86 100 114 110 98 88 88 73 72 61 54 44 38 36 31 27 23 22 19 22 23 22 22 26 31 33 36 37 37 38 39 41 42 50 67 75 83 92 93 85 81 84 72
92 102 109 105 91 87 82 79 68 62 53 44 41 36 33 31 30 27 22 25 22 18 23 31 36 37 38 38 39 38 39 41 45 52 64 77 88 92 91 91 93 87 81
101 103 100 91 96 89 83 76 73 59 46 44 41 38 36 31 29 23 20 20 18 19 25 32 35 38 39 39 39 37 36 38 44 52 62 72 84 92 91 89 86 90 84
108 106 101 104 93 77 77 74 62 53 50 43 41 40 37 33 26 18 18 18 17 22 27 29 30 34 34 35 33 32 33 35 41 50 55 65 73 77 78 81 82 87 74
112 111 111 100 91 84 77 67 62 59 54 52 48 40 36 34 23 17 12 12 17 24 29 31 32 34 35 37 33 29 27 28 34 42 49 57 67 70 73 74 75 76 71
120 114 111 89 89 82 73 67 69 65 58 51 46 39 36 33 19 12 7 12 20 28 31 35 36 37 41 44 41 31 28 30 34 38 40 48 60 62 63 62 67 69 72
113 93 84 100 93 81 77 77 71 66 60 51 45 39 34 31 19 15 10 16 23 29 31 36 38 40 43 44 40 38 36 33 30 33 37 42 57 61 62 62 65 71 73
83 92 95 95 84 80 82 77 72 64 59 54 49 41 36 35 26 19 17 17 26 27 32 34 35 37 39 41 39 42 44 42 40 39 46 50 62 66 65 58 62 70 67
99 93 84 80 83 84 77 71 67 62 58 52 47 43 38 34 31 27 22 24 27 29 30 31 32 34 38 37 36 40 40 32 37 47 57 64 67 73 69 62 58 66 66
95 91 86 83 79 77 79 73 63 57 54 53 50 48 43 37 35 32 25 26 27 27 29 30 31 32 34 35 36 36 34 34 41 49 58 69 76 77 70 66 59 68 65
100 98 94 90 85 79 75 68 61 57 57 56 51 52 48 41 38 31 24 24 24 28 32 33 33 34 36 37 37 40 42 44 48 54 62 64 71 70 65 65 68 70 72
104 99 95 94 88 79 70 60 55 54 56 55 53 52 47 42 35 25 22 21 24 31 30 32 40 45 46 42 40 46 49 50 53 54 58 57 64 74 72 64 74 78 79
99 99 95 88 77 73 66 56 54 53 46 53 51 45 41 41 32 24 22 25 31 32 32 40 48 54 54 52 51 51 52 50 52 53 55 60 66 74 73 61 65 78 81
109 101 93 89 86 77 72 75 63 59 52 47 45 40 44 36 25 26 28 32 31 33 44 53 59 62 61 58 57 54 55 54 54 52 53 60 68 75 71 60 61 65 77
103 98 93 86 80 79 75 76 80 64 54 50 43 37 33 32 27 29 34 36 41 43 56 60 61 62 59 55 56 55 55 53 49 50 53 59 67 70 69 61 57 58 65
96 90 84 80 78 76 74 74 72 70 66 57 43 36 37 37 35 32 33 39 51 57 61 61 60 58 57 55 53 54 51 51 50 52 52 61 66 69 67 60 54 53 52
85 84 84 85 82 79 75 71 67 63 59 54 50 45 42 43 40 41 43 51 58 61 59 59 57 55 54 52 52 51 49 52 52 53 53 62 65 67 62 56 49 45 45
89 87 85 84 79 75 73 71 66 59 54 51 47 42 38 38 45 50 53 56 57 58 55 55 55 54 52 52 53 54 50 52 52 56 58 65 64 64 57 53 49 44 43
87 81 76 76 73 70 65 67 62 55 53 51 48 43 40 45 52 52 54 54 54 54 52 52 53 52 53 53 52 55 52 52 51 57 62 66 64 63 54 49 47 44 42
78 73 69 68 67 68 66 59 54 52 52 52 50 44 43 48 50 55 52 51 50 50 50 50 51 53 55 54 53 54 53 53 53 55 62 65 64 59 54 52 49 48 45
75 77 80 79 76 71 65 58 54 51 49 44 43 45 44 47 49 50 49 47 45 45 46 46 48 49 50 52 52 53 53 52 53 53 59 64 63 60 56 55 52 51 52
78 78 78 76 71 64 57 52 48 50 47 46 43 41 40 41 41 42 42 42 43 43 44 46 48 48 48 49 50 49 49 43 42 47 53 62 59 61 56 54 55 57 59
72 70 68 64 59 55 51 49 48 45 46 45 45 40 34 32 32 31 35 37 39 40 43 44 46 46 46 47 48 45 42 43 41 40 46 56 59 60 58 53 54 54 57
63 62 61 57 55 52 50 47 44 43 43 41 39 36 31 28 25 24 28 34 37 39 41 42 43 43 43 45 46 46 42 41 44 40 43 48 58 59 52 50 53 56 50
Wind_Direction_850mb
193 179 182 189 185 181 185 190 178 177 164 159 155 150 148 141 128 119 94 87 85 87 74 50 42 31 17 10 5 356 352 351 348 342 344 354 355 356 353 1 358 354 357
189 180 177 186 190 188 190 175 170 158 157 154 149 146 144 139 120 102 99 104 96 77 61 47 35 20 11 8 2 354 350 356 352 350 346 357 356 359 356 360 358 356 357
188 183 179 186 187 184 168 162 158 156 158 149 149 146 138 124 110 99 112 101 84 69 51 34 24 14 10 9 3 355 351 355 3 357 354 358 357 360 357 357 358 1 3
188 183 180 185 182 166 159 157 155 157 149 148 145 134 124 115 107 110 99 86 79 73 46 26 18 12 13 11 7 1 358 2 4 2 0 359 0 359 357 355 355 360 2
177 174 172 166 156 154 154 152 151 148 147 148 140 131 125 116 108 106 93 87 78 53 35 22 16 17 16 14 12 10 5 3 8 6 5 1 3 359 356 354 354 357 2
177 168 162 152 151 154 155 154 143 146 149 145 139 136 129 119 114 104 88 80 59 35 26 24 15 13 10 15 13 12 10 8 13 10 9 5 5 2 355 356 356 358 352
152 153 151 148 149 154 154 144 145 146 144 140 136 133 126 120 117 105 83 65 40 29 24 25 21 18 10 16 14 8 10 16 16 14 14 13 7 5 358 356 359 359 354
134 135 140 137 151 152 148 145 143 139 139 135 131 129 126 119 119 109 90 57 39 35 30 30 22 13 9 10 12 14 15 14 17 20 23 20 17 10 5 1 1 358 0
131 131 142 154 152 147 147 143 140 137 134 133 129 131 126 121 116 106 80 48 47 46 39 32 24 14 15 16 13 20 21 26 28 30 28 25 25 19 10 7 11 7 357
132 145 153 153 147 148 145 140 136 133 131 129 128 123 120 114 115 102 78 71 58 48 39 30 23 20 22 20 19 21 25 27 27 29 29 29 31 25 16 21 22 15 6
149 151 154 148 147 147 139 135 135 132 129 126 123 117 110 105 100 91 87 64 54 45 36 28 23 21 24 27 31 31 28 24 33 36 36 35 32 29 21 21 32 29 15
149 148 144 143 141 139 136 133 128 125 124 123 118 110 103 98 96 90 70 55 44 39 38 34 30 28 31 34 37 41 35 34 33 36 35 34 32 27 22 23 34 40 30
145 144 144 140 137 136 132 127 123 124 121 116 113 107 104 104 92 82 64 53 48 47 48 47 44 41 41 43 44 41 38 38 35 36 35 35 33 31 22 25 35 41 38
143 140 138 138 138 135 126 120 120 121 116 113 112 111 110 95 84 76 66 56 59 55 54 55 52 49 46 49 46 42 42 39 37 36 36 34 37 34 27 26 33 38 36
139 137 139 136 135 131 126 119 115 110 112 114 112 102 98 90 82 80 74 62 52 53 56 54 49 46 46 48 46 41 41 41 39 37 34 33 34 35 31 30 34 38 41
140 142 142 143 142 139 130 121 114 114 114 105 104 97 94 91 96 85 76 71 64 59 56 52 49 46 46 45 43 39 37 39 38 36 34 35 32 35 30 34 38 40 45
142 142 140 142 142 136 131 125 119 110 104 100 97 96 95 99 89 73 68 73 68 60 57 54 51 48 45 43 40 37 37 38 38 36 35 33 30 35 32 33 40 40 44
142 143 142 139 135 132 127 123 120 116 112 105 102 105 99 96 89 82 73 70 64 59 56 53 50 48 45 42 40 38 39 38 39 35 35 33 31 33 32 32 39 42 46
141 138 134 131 128 125 123 120 117 117 114 107 102 93 89 89 87 78 71 65 63 59 55 53 51 48 45 43 42 40 41 40 37 34 35 30 31 34 35 34 38 48 47
137 135 133 131 129 127 126 126 125 121 112 101 92 91 97 93 81 75 70 65 62 59 54 52 50 47 45 42 40 41 44 42 39 34 35 31 36 38 36 36 38 47 52
137 137 134 133 132 129 128 129 128 116 107 102 100 93 86 83 79 74 69 64 59 57 53 49 48 46 43 41 41 42 43 42 39 36 36 35 38 38 39 40 43 50 56
134 135 135 134 133 132 129 124 120 114 112 105 98 94 87 80 74 71 67 63 59 55 52 47 45 42 39 38 39 41 41 39 37 39 38 38 41 41 43 44 49 53 58
138 135 132 128 126 125 125 121 114 110 109 107 104 95 83 75 69 67 64 60 57 54 52 51 48 45 41 38 38 41 40 39 35 37 40 41 42 42 45 46 51 58 69
136 134 132 131 129 125 119 113 112 112 109 107 101 91 82 75 69 64 61 55 53 51 49 49 48 45 43 42 42 45 43 38 35 38 43 44 46 45 48 53 66 78 81
137 134 132 129 128 126 126 122 116 110 105 100 96 92 88 79 72 63 59 54 53 49 49 48 48 45 44 44 44 45 44 36 34 36 44 48 50 53 53 68 79 78 68
138 136 132 132 131 129 124 120 114 111 104 97 93 92 91 89 80 66 58 56 53 49 47 47 47 45 45 45 44 42 42 41 37 37 40 48 53 58 64 74 73 61 58